<?xml version="1.0" encoding="UTF-8" standalone="no" ?>
<gpx xmlns="http://www.topografix.com/GPX/1/1" xmlns:xsi="http://www.w3.org/2001/XMLSchema-instance" xsi:schemaLocation="http://www.topografix.com/GPX/1/1 http://www.topografix.com/GPX/1/1/gpx.xsd" version="1.1" creator="VisuGPX - https://www.visugpx.com">
  <metadata>
    <name>boucle ramières</name>
    <desc><![CDATA[projet boucle des ramières]]></desc>
  </metadata>
  <trk>
    <name><![CDATA[track]]></name>
    <trkseg>
      <trkpt lat="44.7488" lon="4.92022">
        <ele>139</ele>
        <time>2010-11-19T08:05:30Z</time>
      </trkpt>
      <trkpt lat="44.74873" lon="4.92034">
        <ele>139</ele>
        <time>2010-11-19T08:05:30Z</time>
      </trkpt>
      <trkpt lat="44.74883" lon="4.92022">
        <ele>139</ele>
        <time>2010-11-19T08:05:30Z</time>
      </trkpt>
      <trkpt lat="44.74205" lon="4.94424">
        <ele>150</ele>
        <time>2010-11-19T08:05:30Z</time>
      </trkpt>
      <trkpt lat="44.74347" lon="4.94712">
        <ele>152</ele>
        <time>2010-11-19T08:05:30Z</time>
      </trkpt>
      <trkpt lat="44.74317" lon="4.94853">
        <ele>152</ele>
        <time>2010-11-19T08:05:30Z</time>
      </trkpt>
      <trkpt lat="44.74222" lon="4.94933">
        <ele>152</ele>
        <time>2010-11-19T08:05:30Z</time>
      </trkpt>
      <trkpt lat="44.74208" lon="4.95065">
        <ele>152</ele>
        <time>2010-11-19T08:05:30Z</time>
      </trkpt>
      <trkpt lat="44.74205" lon="4.95201">
        <ele>153</ele>
        <time>2010-11-19T08:05:30Z</time>
      </trkpt>
      <trkpt lat="44.74207" lon="4.95198">
        <ele>153</ele>
        <time>2010-11-19T08:05:30Z</time>
      </trkpt>
      <trkpt lat="44.74109" lon="4.95427">
        <ele>154</ele>
        <time>2010-11-19T08:05:30Z</time>
      </trkpt>
      <trkpt lat="44.73922" lon="4.95642">
        <ele>155</ele>
        <time>2010-11-19T08:05:30Z</time>
      </trkpt>
      <trkpt lat="44.73789" lon="4.95762">
        <ele>157</ele>
        <time>2010-11-19T08:05:30Z</time>
      </trkpt>
      <trkpt lat="44.73634" lon="4.9603">
        <ele>159</ele>
        <time>2010-11-19T08:05:30Z</time>
      </trkpt>
      <trkpt lat="44.73563" lon="4.9619">
        <ele>160</ele>
        <time>2010-11-19T08:05:30Z</time>
      </trkpt>
      <trkpt lat="44.73495" lon="4.96213">
        <ele>161</ele>
        <time>2010-11-19T08:05:30Z</time>
      </trkpt>
      <trkpt lat="44.73403" lon="4.96483">
        <ele>163</ele>
        <time>2010-11-19T08:05:30Z</time>
      </trkpt>
      <trkpt lat="44.73387" lon="4.96659">
        <ele>164</ele>
        <time>2010-11-19T08:05:30Z</time>
      </trkpt>
      <trkpt lat="44.73337" lon="4.96859">
        <ele>164</ele>
        <time>2010-11-19T08:05:30Z</time>
      </trkpt>
      <trkpt lat="44.73506" lon="4.96873">
        <ele>163</ele>
        <time>2010-11-19T08:05:30Z</time>
      </trkpt>
      <trkpt lat="44.73524" lon="4.96956">
        <ele>163</ele>
        <time>2010-11-19T08:05:30Z</time>
      </trkpt>
      <trkpt lat="44.73494" lon="4.97087">
        <ele>163</ele>
        <time>2010-11-19T08:05:30Z</time>
      </trkpt>
      <trkpt lat="44.7351" lon="4.97166">
        <ele>164</ele>
        <time>2010-11-19T08:05:30Z</time>
      </trkpt>
      <trkpt lat="44.73576" lon="4.97211">
        <ele>164</ele>
        <time>2010-11-19T08:05:30Z</time>
      </trkpt>
      <trkpt lat="44.73601" lon="4.97218">
        <ele>164</ele>
        <time>2010-11-19T08:05:30Z</time>
      </trkpt>
      <trkpt lat="44.73418" lon="4.97639">
        <ele>166</ele>
        <time>2010-11-19T08:05:30Z</time>
      </trkpt>
      <trkpt lat="44.73353" lon="4.97727">
        <ele>166</ele>
        <time>2010-11-19T08:05:30Z</time>
      </trkpt>
      <trkpt lat="44.73158" lon="4.99277">
        <ele>172</ele>
        <time>2010-11-19T08:05:30Z</time>
      </trkpt>
      <trkpt lat="44.73163" lon="4.99271">
        <ele>172</ele>
        <time>2010-11-19T08:05:30Z</time>
      </trkpt>
      <trkpt lat="44.72873" lon="5.01283">
        <ele>182</ele>
        <time>2010-11-19T08:05:30Z</time>
      </trkpt>
      <trkpt lat="44.72545" lon="5.01271">
        <ele>183</ele>
        <time>2010-11-19T08:05:30Z</time>
      </trkpt>
      <trkpt lat="44.72498" lon="5.0154">
        <ele>184</ele>
        <time>2010-11-19T08:05:30Z</time>
      </trkpt>
      <trkpt lat="44.7253" lon="5.01614">
        <ele>184</ele>
        <time>2010-11-19T08:05:30Z</time>
      </trkpt>
      <trkpt lat="44.72401" lon="5.01728">
        <ele>186</ele>
        <time>2010-11-19T08:05:30Z</time>
      </trkpt>
      <trkpt lat="44.72415" lon="5.01808">
        <ele>189</ele>
        <time>2010-11-19T08:05:30Z</time>
      </trkpt>
      <trkpt lat="44.72269" lon="5.01801">
        <ele>205</ele>
        <time>2010-11-19T08:05:30Z</time>
      </trkpt>
      <trkpt lat="44.7219" lon="5.01917">
        <ele>218</ele>
        <time>2010-11-19T08:05:30Z</time>
      </trkpt>
      <trkpt lat="44.71985" lon="5.01989">
        <ele>223</ele>
        <time>2010-11-19T08:05:30Z</time>
      </trkpt>
      <trkpt lat="44.71985" lon="5.01986">
        <ele>223</ele>
        <time>2010-11-19T08:05:30Z</time>
      </trkpt>
      <trkpt lat="44.71685" lon="5.02016">
        <ele>242</ele>
        <time>2010-11-19T08:05:30Z</time>
      </trkpt>
      <trkpt lat="44.71468" lon="5.0198">
        <ele>273</ele>
        <time>2010-11-19T08:05:30Z</time>
      </trkpt>
      <trkpt lat="44.7141" lon="5.0187">
        <ele>298</ele>
        <time>2010-11-19T08:05:30Z</time>
      </trkpt>
      <trkpt lat="44.71053" lon="5.01764">
        <ele>340</ele>
        <time>2010-11-19T08:05:30Z</time>
      </trkpt>
      <trkpt lat="44.70938" lon="5.01683">
        <ele>338</ele>
        <time>2010-11-19T08:05:30Z</time>
      </trkpt>
      <trkpt lat="44.70715" lon="5.01663">
        <ele>346</ele>
        <time>2010-11-19T08:05:30Z</time>
      </trkpt>
      <trkpt lat="44.70473" lon="5.01715">
        <ele>346</ele>
        <time>2010-11-19T08:05:30Z</time>
      </trkpt>
      <trkpt lat="44.70482" lon="5.01715">
        <ele>347</ele>
        <time>2010-11-19T08:05:30Z</time>
      </trkpt>
      <trkpt lat="44.70451" lon="5.01723">
        <ele>343</ele>
        <time>2010-11-19T08:05:30Z</time>
      </trkpt>
      <trkpt lat="44.7044" lon="5.0188">
        <ele>339</ele>
        <time>2010-11-19T08:05:30Z</time>
      </trkpt>
      <trkpt lat="44.7034" lon="5.01834">
        <ele>321</ele>
        <time>2010-11-19T08:05:30Z</time>
      </trkpt>
      <trkpt lat="44.70165" lon="5.01892">
        <ele>306</ele>
        <time>2010-11-19T08:05:30Z</time>
      </trkpt>
      <trkpt lat="44.70044" lon="5.02347">
        <ele>296</ele>
        <time>2010-11-19T08:05:30Z</time>
      </trkpt>
      <trkpt lat="44.69779" lon="5.02344">
        <ele>289</ele>
        <time>2010-11-19T08:05:30Z</time>
      </trkpt>
      <trkpt lat="44.69601" lon="5.02263">
        <ele>292</ele>
        <time>2010-11-19T08:05:30Z</time>
      </trkpt>
      <trkpt lat="44.69461" lon="5.02196">
        <ele>286</ele>
        <time>2010-11-19T08:05:30Z</time>
      </trkpt>
      <trkpt lat="44.69321" lon="5.02114">
        <ele>297</ele>
        <time>2010-11-19T08:05:30Z</time>
      </trkpt>
      <trkpt lat="44.68982" lon="5.02157">
        <ele>316</ele>
        <time>2010-11-19T08:05:30Z</time>
      </trkpt>
      <trkpt lat="44.68811" lon="5.01976">
        <ele>323</ele>
        <time>2010-11-19T08:05:30Z</time>
      </trkpt>
      <trkpt lat="44.68387" lon="5.01744">
        <ele>325</ele>
        <time>2010-11-19T08:05:30Z</time>
      </trkpt>
      <trkpt lat="44.6833" lon="5.01776">
        <ele>334</ele>
        <time>2010-11-19T08:05:30Z</time>
      </trkpt>
      <trkpt lat="44.68254" lon="5.01687">
        <ele>337</ele>
        <time>2010-11-19T08:05:30Z</time>
      </trkpt>
      <trkpt lat="44.67956" lon="5.01528">
        <ele>309</ele>
        <time>2010-11-19T08:05:30Z</time>
      </trkpt>
      <trkpt lat="44.67909" lon="5.01605">
        <ele>303</ele>
        <time>2010-11-19T08:05:30Z</time>
      </trkpt>
      <trkpt lat="44.67831" lon="5.0156">
        <ele>288</ele>
        <time>2010-11-19T08:05:30Z</time>
      </trkpt>
      <trkpt lat="44.67771" lon="5.01548">
        <ele>279</ele>
        <time>2010-11-19T08:05:30Z</time>
      </trkpt>
      <trkpt lat="44.67754" lon="5.01512">
        <ele>280</ele>
        <time>2010-11-19T08:05:30Z</time>
      </trkpt>
      <trkpt lat="44.67758" lon="5.01509">
        <ele>282</ele>
        <time>2010-11-19T08:05:30Z</time>
      </trkpt>
      <trkpt lat="44.67672" lon="5.01474">
        <ele>275</ele>
        <time>2010-11-19T08:05:30Z</time>
      </trkpt>
      <trkpt lat="44.67603" lon="5.01313">
        <ele>290</ele>
        <time>2010-11-19T08:05:30Z</time>
      </trkpt>
      <trkpt lat="44.67579" lon="5.01211">
        <ele>277</ele>
        <time>2010-11-19T08:05:30Z</time>
      </trkpt>
      <trkpt lat="44.67515" lon="5.01053">
        <ele>274</ele>
        <time>2010-11-19T08:05:30Z</time>
      </trkpt>
      <trkpt lat="44.6761" lon="5.01045">
        <ele>282</ele>
        <time>2010-11-19T08:05:30Z</time>
      </trkpt>
      <trkpt lat="44.67679" lon="5.00884">
        <ele>303</ele>
        <time>2010-11-19T08:05:30Z</time>
      </trkpt>
      <trkpt lat="44.67619" lon="5.0084">
        <ele>306</ele>
        <time>2010-11-19T08:05:30Z</time>
      </trkpt>
      <trkpt lat="44.67568" lon="5.00728">
        <ele>308</ele>
        <time>2010-11-19T08:05:30Z</time>
      </trkpt>
      <trkpt lat="44.67588" lon="5.00574">
        <ele>312</ele>
        <time>2010-11-19T08:05:30Z</time>
      </trkpt>
      <trkpt lat="44.67529" lon="5.00505">
        <ele>310</ele>
        <time>2010-11-19T08:05:30Z</time>
      </trkpt>
      <trkpt lat="44.6747" lon="5.00521">
        <ele>312</ele>
        <time>2010-11-19T08:05:30Z</time>
      </trkpt>
      <trkpt lat="44.67475" lon="5.00392">
        <ele>329</ele>
        <time>2010-11-19T08:05:30Z</time>
      </trkpt>
      <trkpt lat="44.67357" lon="5.00424">
        <ele>334</ele>
        <time>2010-11-19T08:05:30Z</time>
      </trkpt>
      <trkpt lat="44.6714" lon="5.00206">
        <ele>324</ele>
        <time>2010-11-19T08:05:30Z</time>
      </trkpt>
      <trkpt lat="44.66954" lon="5.00084">
        <ele>321</ele>
        <time>2010-11-19T08:05:30Z</time>
      </trkpt>
      <trkpt lat="44.6688" lon="5.0008">
        <ele>318</ele>
        <time>2010-11-19T08:05:30Z</time>
      </trkpt>
      <trkpt lat="44.6684" lon="5.00223">
        <ele>319</ele>
        <time>2010-11-19T08:05:30Z</time>
      </trkpt>
      <trkpt lat="44.66819" lon="5.00446">
        <ele>321</ele>
        <time>2010-11-19T08:05:30Z</time>
      </trkpt>
      <trkpt lat="44.66788" lon="5.00539">
        <ele>321</ele>
        <time>2010-11-19T08:05:30Z</time>
      </trkpt>
      <trkpt lat="44.66795" lon="5.0053">
        <ele>321</ele>
        <time>2010-11-19T08:05:30Z</time>
      </trkpt>
      <trkpt lat="44.66729" lon="5.00716">
        <ele>323</ele>
        <time>2010-11-19T08:05:30Z</time>
      </trkpt>
      <trkpt lat="44.66503" lon="5.01055">
        <ele>330</ele>
        <time>2010-11-19T08:05:30Z</time>
      </trkpt>
      <trkpt lat="44.66283" lon="5.01407">
        <ele>334</ele>
        <time>2010-11-19T08:05:30Z</time>
      </trkpt>
      <trkpt lat="44.66116" lon="5.02061">
        <ele>359</ele>
        <time>2010-11-19T08:05:30Z</time>
      </trkpt>
      <trkpt lat="44.66014" lon="5.0245">
        <ele>382</ele>
        <time>2010-11-19T08:05:30Z</time>
      </trkpt>
      <trkpt lat="44.65918" lon="5.02512">
        <ele>388</ele>
        <time>2010-11-19T08:05:30Z</time>
      </trkpt>
      <trkpt lat="44.66081" lon="5.02684">
        <ele>402</ele>
        <time>2010-11-19T08:05:30Z</time>
      </trkpt>
      <trkpt lat="44.65991" lon="5.02755">
        <ele>411</ele>
        <time>2010-11-19T08:05:30Z</time>
      </trkpt>
      <trkpt lat="44.65843" lon="5.02817">
        <ele>421</ele>
        <time>2010-11-19T08:05:30Z</time>
      </trkpt>
      <trkpt lat="44.65545" lon="5.03159">
        <ele>425</ele>
        <time>2010-11-19T08:05:30Z</time>
      </trkpt>
      <trkpt lat="44.65478" lon="5.03247">
        <ele>422</ele>
        <time>2010-11-19T08:05:30Z</time>
      </trkpt>
      <trkpt lat="44.65407" lon="5.03263">
        <ele>409</ele>
        <time>2010-11-19T08:05:30Z</time>
      </trkpt>
      <trkpt lat="44.65414" lon="5.03351">
        <ele>409</ele>
        <time>2010-11-19T08:05:30Z</time>
      </trkpt>
      <trkpt lat="44.65296" lon="5.03327">
        <ele>403</ele>
        <time>2010-11-19T08:05:30Z</time>
      </trkpt>
      <trkpt lat="44.65305" lon="5.03324">
        <ele>403</ele>
        <time>2010-11-19T08:05:30Z</time>
      </trkpt>
      <trkpt lat="44.65212" lon="5.03335">
        <ele>400</ele>
        <time>2010-11-19T08:05:30Z</time>
      </trkpt>
      <trkpt lat="44.65014" lon="5.03452">
        <ele>391</ele>
        <time>2010-11-19T08:05:30Z</time>
      </trkpt>
      <trkpt lat="44.64843" lon="5.03264">
        <ele>367</ele>
        <time>2010-11-19T08:05:30Z</time>
      </trkpt>
      <trkpt lat="44.64628" lon="5.03197">
        <ele>350</ele>
        <time>2010-11-19T08:05:30Z</time>
      </trkpt>
      <trkpt lat="44.64434" lon="5.03764">
        <ele>354</ele>
        <time>2010-11-19T08:05:30Z</time>
      </trkpt>
      <trkpt lat="44.64431" lon="5.03922">
        <ele>353</ele>
        <time>2010-11-19T08:05:30Z</time>
      </trkpt>
      <trkpt lat="44.64308" lon="5.03985">
        <ele>345</ele>
        <time>2010-11-19T08:05:30Z</time>
      </trkpt>
      <trkpt lat="44.64193" lon="5.0398">
        <ele>349</ele>
        <time>2010-11-19T08:05:30Z</time>
      </trkpt>
      <trkpt lat="44.64134" lon="5.04169">
        <ele>336</ele>
        <time>2010-11-19T08:05:30Z</time>
      </trkpt>
      <trkpt lat="44.64139" lon="5.04324">
        <ele>329</ele>
        <time>2010-11-19T08:05:30Z</time>
      </trkpt>
      <trkpt lat="44.64086" lon="5.04466">
        <ele>325</ele>
        <time>2010-11-19T08:05:30Z</time>
      </trkpt>
      <trkpt lat="44.6402" lon="5.04787">
        <ele>313</ele>
        <time>2010-11-19T08:05:30Z</time>
      </trkpt>
      <trkpt lat="44.63999" lon="5.04827">
        <ele>312</ele>
        <time>2010-11-19T08:05:30Z</time>
      </trkpt>
      <trkpt lat="44.63997" lon="5.04824">
        <ele>312</ele>
        <time>2010-11-19T08:05:30Z</time>
      </trkpt>
      <trkpt lat="44.63972" lon="5.04895">
        <ele>310</ele>
        <time>2010-11-19T08:05:30Z</time>
      </trkpt>
      <trkpt lat="44.63987" lon="5.04943">
        <ele>310</ele>
        <time>2010-11-19T08:05:30Z</time>
      </trkpt>
      <trkpt lat="44.63873" lon="5.04995">
        <ele>307</ele>
        <time>2010-11-19T08:05:30Z</time>
      </trkpt>
      <trkpt lat="44.63762" lon="5.05109">
        <ele>303</ele>
        <time>2010-11-19T08:05:30Z</time>
      </trkpt>
      <trkpt lat="44.63709" lon="5.05195">
        <ele>300</ele>
        <time>2010-11-19T08:05:30Z</time>
      </trkpt>
      <trkpt lat="44.63715" lon="5.05223">
        <ele>300</ele>
        <time>2010-11-19T08:05:30Z</time>
      </trkpt>
      <trkpt lat="44.63811" lon="5.05313">
        <ele>304</ele>
        <time>2010-11-19T08:05:30Z</time>
      </trkpt>
      <trkpt lat="44.63835" lon="5.05443">
        <ele>306</ele>
        <time>2010-11-19T08:05:30Z</time>
      </trkpt>
      <trkpt lat="44.63824" lon="5.05518">
        <ele>308</ele>
        <time>2010-11-19T08:05:30Z</time>
      </trkpt>
      <trkpt lat="44.63875" lon="5.05644">
        <ele>309</ele>
        <time>2010-11-19T08:05:30Z</time>
      </trkpt>
      <trkpt lat="44.63919" lon="5.05684">
        <ele>310</ele>
        <time>2010-11-19T08:05:30Z</time>
      </trkpt>
      <trkpt lat="44.64" lon="5.05685">
        <ele>312</ele>
        <time>2010-11-19T08:05:30Z</time>
      </trkpt>
      <trkpt lat="44.64102" lon="5.05932">
        <ele>314</ele>
        <time>2010-11-19T08:05:30Z</time>
      </trkpt>
      <trkpt lat="44.64266" lon="5.06038">
        <ele>318</ele>
        <time>2010-11-19T08:05:30Z</time>
      </trkpt>
      <trkpt lat="44.64353" lon="5.06051">
        <ele>318</ele>
        <time>2010-11-19T08:05:30Z</time>
      </trkpt>
      <trkpt lat="44.64383" lon="5.06028">
        <ele>318</ele>
        <time>2010-11-19T08:05:30Z</time>
      </trkpt>
      <trkpt lat="44.64498" lon="5.06096">
        <ele>319</ele>
        <time>2010-11-19T08:05:30Z</time>
      </trkpt>
      <trkpt lat="44.64565" lon="5.06229">
        <ele>321</ele>
        <time>2010-11-19T08:05:30Z</time>
      </trkpt>
      <trkpt lat="44.64602" lon="5.06363">
        <ele>324</ele>
        <time>2010-11-19T08:05:30Z</time>
      </trkpt>
      <trkpt lat="44.64706" lon="5.06535">
        <ele>333</ele>
        <time>2010-11-19T08:05:30Z</time>
      </trkpt>
      <trkpt lat="44.64796" lon="5.06905">
        <ele>337</ele>
        <time>2010-11-19T08:05:30Z</time>
      </trkpt>
      <trkpt lat="44.64691" lon="5.06938">
        <ele>332</ele>
        <time>2010-11-19T08:05:30Z</time>
      </trkpt>
      <trkpt lat="44.64619" lon="5.06956">
        <ele>344</ele>
        <time>2010-11-19T08:05:30Z</time>
      </trkpt>
      <trkpt lat="44.64592" lon="5.07037">
        <ele>347</ele>
        <time>2010-11-19T08:05:30Z</time>
      </trkpt>
      <trkpt lat="44.64776" lon="5.07534">
        <ele>351</ele>
        <time>2010-11-19T08:05:30Z</time>
      </trkpt>
      <trkpt lat="44.64741" lon="5.07665">
        <ele>388</ele>
        <time>2010-11-19T08:05:30Z</time>
      </trkpt>
      <trkpt lat="44.64762" lon="5.0772">
        <ele>360</ele>
        <time>2010-11-19T08:05:30Z</time>
      </trkpt>
      <trkpt lat="44.64727" lon="5.0796">
        <ele>376</ele>
        <time>2010-11-19T08:05:30Z</time>
      </trkpt>
      <trkpt lat="44.6489" lon="5.0817">
        <ele>365</ele>
        <time>2010-11-19T08:05:30Z</time>
      </trkpt>
      <trkpt lat="44.64937" lon="5.0838">
        <ele>362</ele>
        <time>2010-11-19T08:05:30Z</time>
      </trkpt>
      <trkpt lat="44.6493" lon="5.08541">
        <ele>364</ele>
        <time>2010-11-19T08:05:30Z</time>
      </trkpt>
      <trkpt lat="44.64874" lon="5.08636">
        <ele>379</ele>
        <time>2010-11-19T08:05:30Z</time>
      </trkpt>
      <trkpt lat="44.64894" lon="5.08653">
        <ele>374</ele>
        <time>2010-11-19T08:05:30Z</time>
      </trkpt>
      <trkpt lat="44.64891" lon="5.08659">
        <ele>375</ele>
        <time>2010-11-19T08:05:30Z</time>
      </trkpt>
      <trkpt lat="44.64894" lon="5.08659">
        <ele>374</ele>
        <time>2010-11-19T08:05:30Z</time>
      </trkpt>
      <trkpt lat="44.64848" lon="5.08685">
        <ele>371</ele>
        <time>2010-11-19T08:05:30Z</time>
      </trkpt>
      <trkpt lat="44.64734" lon="5.08585">
        <ele>358</ele>
        <time>2010-11-19T08:05:30Z</time>
      </trkpt>
      <trkpt lat="44.64677" lon="5.08689">
        <ele>368</ele>
        <time>2010-11-19T08:05:30Z</time>
      </trkpt>
      <trkpt lat="44.64246" lon="5.08756">
        <ele>369</ele>
        <time>2010-11-19T08:05:30Z</time>
      </trkpt>
      <trkpt lat="44.64148" lon="5.08969">
        <ele>379</ele>
        <time>2010-11-19T08:05:30Z</time>
      </trkpt>
      <trkpt lat="44.63926" lon="5.09128">
        <ele>382</ele>
        <time>2010-11-19T08:05:30Z</time>
      </trkpt>
      <trkpt lat="44.63822" lon="5.09136">
        <ele>380</ele>
        <time>2010-11-19T08:05:30Z</time>
      </trkpt>
      <trkpt lat="44.63713" lon="5.09184">
        <ele>377</ele>
        <time>2010-11-19T08:05:30Z</time>
      </trkpt>
      <trkpt lat="44.63546" lon="5.08835">
        <ele>349</ele>
        <time>2010-11-19T08:05:30Z</time>
      </trkpt>
      <trkpt lat="44.63516" lon="5.08673">
        <ele>341</ele>
        <time>2010-11-19T08:05:30Z</time>
      </trkpt>
      <trkpt lat="44.63521" lon="5.0867">
        <ele>341</ele>
        <time>2010-11-19T08:05:30Z</time>
      </trkpt>
      <trkpt lat="44.63608" lon="5.0853">
        <ele>338</ele>
        <time>2010-11-19T08:05:30Z</time>
      </trkpt>
      <trkpt lat="44.6354" lon="5.08092">
        <ele>335</ele>
        <time>2010-11-19T08:05:30Z</time>
      </trkpt>
      <trkpt lat="44.63416" lon="5.07578">
        <ele>325</ele>
        <time>2010-11-19T08:05:30Z</time>
      </trkpt>
      <trkpt lat="44.63457" lon="5.07555">
        <ele>326</ele>
        <time>2010-11-19T08:05:30Z</time>
      </trkpt>
      <trkpt lat="44.63493" lon="5.07431">
        <ele>324</ele>
        <time>2010-11-19T08:05:30Z</time>
      </trkpt>
      <trkpt lat="44.63498" lon="5.07081">
        <ele>315</ele>
        <time>2010-11-19T08:05:30Z</time>
      </trkpt>
      <trkpt lat="44.63601" lon="5.06903">
        <ele>315</ele>
        <time>2010-11-19T08:05:30Z</time>
      </trkpt>
      <trkpt lat="44.63678" lon="5.06813">
        <ele>315</ele>
        <time>2010-11-19T08:05:30Z</time>
      </trkpt>
      <trkpt lat="44.63675" lon="5.06564">
        <ele>315</ele>
        <time>2010-11-19T08:05:30Z</time>
      </trkpt>
      <trkpt lat="44.63487" lon="5.0651">
        <ele>311</ele>
        <time>2010-11-19T08:05:30Z</time>
      </trkpt>
      <trkpt lat="44.63514" lon="5.06222">
        <ele>312</ele>
        <time>2010-11-19T08:05:30Z</time>
      </trkpt>
      <trkpt lat="44.63531" lon="5.06207">
        <ele>312</ele>
        <time>2010-11-19T08:05:30Z</time>
      </trkpt>
      <trkpt lat="44.63528" lon="5.06204">
        <ele>312</ele>
        <time>2010-11-19T08:05:30Z</time>
      </trkpt>
      <trkpt lat="44.63615" lon="5.05877">
        <ele>307</ele>
        <time>2010-11-19T08:05:30Z</time>
      </trkpt>
      <trkpt lat="44.63648" lon="5.0563">
        <ele>306</ele>
        <time>2010-11-19T08:05:30Z</time>
      </trkpt>
      <trkpt lat="44.63682" lon="5.05467">
        <ele>305</ele>
        <time>2010-11-19T08:05:30Z</time>
      </trkpt>
      <trkpt lat="44.63694" lon="5.05247">
        <ele>300</ele>
        <time>2010-11-19T08:05:30Z</time>
      </trkpt>
      <trkpt lat="44.63677" lon="5.05196">
        <ele>300</ele>
        <time>2010-11-19T08:05:30Z</time>
      </trkpt>
      <trkpt lat="44.63678" lon="5.05149">
        <ele>300</ele>
        <time>2010-11-19T08:05:30Z</time>
      </trkpt>
      <trkpt lat="44.6359" lon="5.05151">
        <ele>299</ele>
        <time>2010-11-19T08:05:30Z</time>
      </trkpt>
      <trkpt lat="44.63543" lon="5.05086">
        <ele>298</ele>
        <time>2010-11-19T08:05:30Z</time>
      </trkpt>
      <trkpt lat="44.63501" lon="5.05027">
        <ele>298</ele>
        <time>2010-11-19T08:05:30Z</time>
      </trkpt>
      <trkpt lat="44.63423" lon="5.04733">
        <ele>293</ele>
        <time>2010-11-19T08:05:30Z</time>
      </trkpt>
      <trkpt lat="44.63427" lon="5.0474">
        <ele>293</ele>
        <time>2010-11-19T08:05:30Z</time>
      </trkpt>
      <trkpt lat="44.63385" lon="5.0465">
        <ele>291</ele>
        <time>2010-11-19T08:05:30Z</time>
      </trkpt>
      <trkpt lat="44.63355" lon="5.04393">
        <ele>292</ele>
        <time>2010-11-19T08:05:30Z</time>
      </trkpt>
      <trkpt lat="44.6322" lon="5.04201">
        <ele>293</ele>
        <time>2010-11-19T08:05:30Z</time>
      </trkpt>
      <trkpt lat="44.63328" lon="5.04127">
        <ele>296</ele>
        <time>2010-11-19T08:05:30Z</time>
      </trkpt>
      <trkpt lat="44.63328" lon="5.04114">
        <ele>296</ele>
        <time>2010-11-19T08:05:30Z</time>
      </trkpt>
      <trkpt lat="44.63287" lon="5.03955">
        <ele>299</ele>
        <time>2010-11-19T08:05:30Z</time>
      </trkpt>
      <trkpt lat="44.63295" lon="5.03905">
        <ele>302</ele>
        <time>2010-11-19T08:05:30Z</time>
      </trkpt>
      <trkpt lat="44.63411" lon="5.03829">
        <ele>302</ele>
        <time>2010-11-19T08:05:30Z</time>
      </trkpt>
      <trkpt lat="44.63478" lon="5.03589">
        <ele>314</ele>
        <time>2010-11-19T08:05:30Z</time>
      </trkpt>
      <trkpt lat="44.63503" lon="5.03382">
        <ele>324</ele>
        <time>2010-11-19T08:05:30Z</time>
      </trkpt>
      <trkpt lat="44.63487" lon="5.033">
        <ele>324</ele>
        <time>2010-11-19T08:05:30Z</time>
      </trkpt>
      <trkpt lat="44.63529" lon="5.03258">
        <ele>327</ele>
        <time>2010-11-19T08:05:30Z</time>
      </trkpt>
      <trkpt lat="44.63458" lon="5.03037">
        <ele>324</ele>
        <time>2010-11-19T08:05:30Z</time>
      </trkpt>
      <trkpt lat="44.63443" lon="5.02803">
        <ele>321</ele>
        <time>2010-11-19T08:05:30Z</time>
      </trkpt>
      <trkpt lat="44.63411" lon="5.02663">
        <ele>320</ele>
        <time>2010-11-19T08:05:30Z</time>
      </trkpt>
      <trkpt lat="44.63513" lon="5.02718">
        <ele>312</ele>
        <time>2010-11-19T08:05:30Z</time>
      </trkpt>
      <trkpt lat="44.63547" lon="5.02707">
        <ele>311</ele>
        <time>2010-11-19T08:05:30Z</time>
      </trkpt>
      <trkpt lat="44.6358" lon="5.02756">
        <ele>312</ele>
        <time>2010-11-19T08:05:30Z</time>
      </trkpt>
      <trkpt lat="44.63789" lon="5.02816">
        <ele>318</ele>
        <time>2010-11-19T08:05:30Z</time>
      </trkpt>
      <trkpt lat="44.63787" lon="5.0281">
        <ele>318</ele>
        <time>2010-11-19T08:05:30Z</time>
      </trkpt>
      <trkpt lat="44.63916" lon="5.02901">
        <ele>321</ele>
        <time>2010-11-19T08:05:30Z</time>
      </trkpt>
      <trkpt lat="44.64001" lon="5.02987">
        <ele>325</ele>
        <time>2010-11-19T08:05:30Z</time>
      </trkpt>
      <trkpt lat="44.64268" lon="5.03101">
        <ele>333</ele>
        <time>2010-11-19T08:05:30Z</time>
      </trkpt>
      <trkpt lat="44.6424" lon="5.02996">
        <ele>331</ele>
        <time>2010-11-19T08:05:30Z</time>
      </trkpt>
      <trkpt lat="44.64203" lon="5.02748">
        <ele>328</ele>
        <time>2010-11-19T08:05:30Z</time>
      </trkpt>
      <trkpt lat="44.64096" lon="5.02538">
        <ele>327</ele>
        <time>2010-11-19T08:05:30Z</time>
      </trkpt>
      <trkpt lat="44.64001" lon="5.02272">
        <ele>337</ele>
        <time>2010-11-19T08:05:30Z</time>
      </trkpt>
      <trkpt lat="44.64025" lon="5.02216">
        <ele>336</ele>
        <time>2010-11-19T08:05:30Z</time>
      </trkpt>
      <trkpt lat="44.64139" lon="5.02127">
        <ele>342</ele>
        <time>2010-11-19T08:05:30Z</time>
      </trkpt>
      <trkpt lat="44.64158" lon="5.02021">
        <ele>350</ele>
        <time>2010-11-19T08:05:30Z</time>
      </trkpt>
      <trkpt lat="44.64479" lon="5.022">
        <ele>364</ele>
        <time>2010-11-19T08:05:30Z</time>
      </trkpt>
      <trkpt lat="44.64507" lon="5.0235">
        <ele>362</ele>
        <time>2010-11-19T08:05:30Z</time>
      </trkpt>
      <trkpt lat="44.64773" lon="5.02337">
        <ele>387</ele>
        <time>2010-11-19T08:05:30Z</time>
      </trkpt>
      <trkpt lat="44.65051" lon="5.02382">
        <ele>408</ele>
        <time>2010-11-19T08:05:30Z</time>
      </trkpt>
      <trkpt lat="44.65106" lon="5.02328">
        <ele>411</ele>
        <time>2010-11-19T08:05:30Z</time>
      </trkpt>
      <trkpt lat="44.64921" lon="5.019">
        <ele>417</ele>
        <time>2010-11-19T08:05:30Z</time>
      </trkpt>
      <trkpt lat="44.64871" lon="5.01753">
        <ele>412</ele>
        <time>2010-11-19T08:05:30Z</time>
      </trkpt>
      <trkpt lat="44.65033" lon="5.01628">
        <ele>393</ele>
        <time>2010-11-19T08:05:30Z</time>
      </trkpt>
      <trkpt lat="44.6502" lon="5.0152">
        <ele>389</ele>
        <time>2010-11-19T08:05:30Z</time>
      </trkpt>
      <trkpt lat="44.65045" lon="5.01232">
        <ele>367</ele>
        <time>2010-11-19T08:05:30Z</time>
      </trkpt>
      <trkpt lat="44.65064" lon="5.01188">
        <ele>363</ele>
        <time>2010-11-19T08:05:30Z</time>
      </trkpt>
      <trkpt lat="44.65067" lon="5.01188">
        <ele>363</ele>
        <time>2010-11-19T08:05:30Z</time>
      </trkpt>
      <trkpt lat="44.65225" lon="5.0096">
        <ele>353</ele>
        <time>2010-11-19T08:05:30Z</time>
      </trkpt>
      <trkpt lat="44.65204" lon="5.00814">
        <ele>348</ele>
        <time>2010-11-19T08:05:30Z</time>
      </trkpt>
      <trkpt lat="44.65307" lon="5.00639">
        <ele>352</ele>
        <time>2010-11-19T08:05:30Z</time>
      </trkpt>
      <trkpt lat="44.65323" lon="5.00432">
        <ele>351</ele>
        <time>2010-11-19T08:05:30Z</time>
      </trkpt>
      <trkpt lat="44.65608" lon="5.0012">
        <ele>337</ele>
        <time>2010-11-19T08:05:30Z</time>
      </trkpt>
      <trkpt lat="44.65683" lon="5.00146">
        <ele>333</ele>
        <time>2010-11-19T08:05:30Z</time>
      </trkpt>
      <trkpt lat="44.65736" lon="4.99947">
        <ele>322</ele>
        <time>2010-11-19T08:05:30Z</time>
      </trkpt>
      <trkpt lat="44.6598" lon="4.99782">
        <ele>313</ele>
        <time>2010-11-19T08:05:30Z</time>
      </trkpt>
      <trkpt lat="44.662" lon="4.99521">
        <ele>308</ele>
        <time>2010-11-19T08:05:30Z</time>
      </trkpt>
      <trkpt lat="44.66194" lon="4.99518">
        <ele>309</ele>
        <time>2010-11-19T08:05:30Z</time>
      </trkpt>
      <trkpt lat="44.66194" lon="4.99486">
        <ele>309</ele>
        <time>2010-11-19T08:05:30Z</time>
      </trkpt>
      <trkpt lat="44.66281" lon="4.99361">
        <ele>304</ele>
        <time>2010-11-19T08:05:30Z</time>
      </trkpt>
      <trkpt lat="44.66436" lon="4.99268">
        <ele>303</ele>
        <time>2010-11-19T08:05:30Z</time>
      </trkpt>
      <trkpt lat="44.66644" lon="4.98925">
        <ele>300</ele>
        <time>2010-11-19T08:05:30Z</time>
      </trkpt>
      <trkpt lat="44.66831" lon="4.98826">
        <ele>296</ele>
        <time>2010-11-19T08:05:30Z</time>
      </trkpt>
      <trkpt lat="44.67075" lon="4.98595">
        <ele>295</ele>
        <time>2010-11-19T08:05:30Z</time>
      </trkpt>
      <trkpt lat="44.67089" lon="4.98586">
        <ele>295</ele>
        <time>2010-11-19T08:05:30Z</time>
      </trkpt>
      <trkpt lat="44.6719" lon="4.98591">
        <ele>289</ele>
        <time>2010-11-19T08:05:30Z</time>
      </trkpt>
      <trkpt lat="44.67279" lon="4.98825">
        <ele>290</ele>
        <time>2010-11-19T08:05:30Z</time>
      </trkpt>
      <trkpt lat="44.67376" lon="4.98738">
        <ele>289</ele>
        <time>2010-11-19T08:05:30Z</time>
      </trkpt>
      <trkpt lat="44.675" lon="4.98508">
        <ele>289</ele>
        <time>2010-11-19T08:05:30Z</time>
      </trkpt>
      <trkpt lat="44.67543" lon="4.98226">
        <ele>286</ele>
        <time>2010-11-19T08:05:30Z</time>
      </trkpt>
      <trkpt lat="44.67827" lon="4.98035">
        <ele>292</ele>
        <time>2010-11-19T08:05:30Z</time>
      </trkpt>
      <trkpt lat="44.67888" lon="4.97826">
        <ele>290</ele>
        <time>2010-11-19T08:05:30Z</time>
      </trkpt>
      <trkpt lat="44.67968" lon="4.97783">
        <ele>287</ele>
        <time>2010-11-19T08:05:30Z</time>
      </trkpt>
      <trkpt lat="44.67841" lon="4.9771">
        <ele>278</ele>
        <time>2010-11-19T08:05:30Z</time>
      </trkpt>
      <trkpt lat="44.67709" lon="4.97692">
        <ele>280</ele>
        <time>2010-11-19T08:05:30Z</time>
      </trkpt>
      <trkpt lat="44.67708" lon="4.97622">
        <ele>284</ele>
        <time>2010-11-19T08:05:30Z</time>
      </trkpt>
      <trkpt lat="44.67849" lon="4.9749">
        <ele>289</ele>
        <time>2010-11-19T08:05:30Z</time>
      </trkpt>
      <trkpt lat="44.67799" lon="4.97321">
        <ele>287</ele>
        <time>2010-11-19T08:05:30Z</time>
      </trkpt>
      <trkpt lat="44.677" lon="4.97313">
        <ele>286</ele>
        <time>2010-11-19T08:05:30Z</time>
      </trkpt>
      <trkpt lat="44.67712" lon="4.9719">
        <ele>286</ele>
        <time>2010-11-19T08:05:30Z</time>
      </trkpt>
      <trkpt lat="44.67775" lon="4.97074">
        <ele>288</ele>
        <time>2010-11-19T08:05:30Z</time>
      </trkpt>
      <trkpt lat="44.67697" lon="4.9689">
        <ele>291</ele>
        <time>2010-11-19T08:05:30Z</time>
      </trkpt>
      <trkpt lat="44.67832" lon="4.97064">
        <ele>275</ele>
        <time>2010-11-19T08:05:30Z</time>
      </trkpt>
      <trkpt lat="44.67935" lon="4.97065">
        <ele>263</ele>
        <time>2010-11-19T08:05:30Z</time>
      </trkpt>
      <trkpt lat="44.67958" lon="4.96981">
        <ele>266</ele>
        <time>2010-11-19T08:05:30Z</time>
      </trkpt>
      <trkpt lat="44.67962" lon="4.96966">
        <ele>267</ele>
        <time>2010-11-19T08:05:30Z</time>
      </trkpt>
      <trkpt lat="44.68006" lon="4.96857">
        <ele>279</ele>
        <time>2010-11-19T08:05:30Z</time>
      </trkpt>
      <trkpt lat="44.68102" lon="4.96786">
        <ele>296</ele>
        <time>2010-11-19T08:05:30Z</time>
      </trkpt>
      <trkpt lat="44.68078" lon="4.96558">
        <ele>299</ele>
        <time>2010-11-19T08:05:30Z</time>
      </trkpt>
      <trkpt lat="44.68056" lon="4.96437">
        <ele>295</ele>
        <time>2010-11-19T08:05:30Z</time>
      </trkpt>
      <trkpt lat="44.68066" lon="4.96318">
        <ele>294</ele>
        <time>2010-11-19T08:05:30Z</time>
      </trkpt>
      <trkpt lat="44.68107" lon="4.96288">
        <ele>300</ele>
        <time>2010-11-19T08:05:30Z</time>
      </trkpt>
      <trkpt lat="44.68104" lon="4.96335">
        <ele>303</ele>
        <time>2010-11-19T08:05:30Z</time>
      </trkpt>
      <trkpt lat="44.68144" lon="4.96337">
        <ele>317</ele>
        <time>2010-11-19T08:05:30Z</time>
      </trkpt>
      <trkpt lat="44.68117" lon="4.96421">
        <ele>319</ele>
        <time>2010-11-19T08:05:30Z</time>
      </trkpt>
      <trkpt lat="44.68157" lon="4.96637">
        <ele>318</ele>
        <time>2010-11-19T08:05:30Z</time>
      </trkpt>
      <trkpt lat="44.68212" lon="4.96615">
        <ele>340</ele>
        <time>2010-11-19T08:05:30Z</time>
      </trkpt>
      <trkpt lat="44.68185" lon="4.96519">
        <ele>345</ele>
        <time>2010-11-19T08:05:30Z</time>
      </trkpt>
      <trkpt lat="44.68222" lon="4.9647">
        <ele>352</ele>
        <time>2010-11-19T08:05:30Z</time>
      </trkpt>
      <trkpt lat="44.68226" lon="4.9647">
        <ele>352</ele>
        <time>2010-11-19T08:05:30Z</time>
      </trkpt>
      <trkpt lat="44.68235" lon="4.96465">
        <ele>352</ele>
        <time>2010-11-19T08:05:30Z</time>
      </trkpt>
      <trkpt lat="44.68427" lon="4.96354">
        <ele>350</ele>
        <time>2010-11-19T08:05:30Z</time>
      </trkpt>
      <trkpt lat="44.68562" lon="4.96051">
        <ele>352</ele>
        <time>2010-11-19T08:05:30Z</time>
      </trkpt>
      <trkpt lat="44.68656" lon="4.96002">
        <ele>355</ele>
        <time>2010-11-19T08:05:30Z</time>
      </trkpt>
      <trkpt lat="44.68875" lon="4.95665">
        <ele>349</ele>
        <time>2010-11-19T08:05:30Z</time>
      </trkpt>
      <trkpt lat="44.689" lon="4.95304">
        <ele>331</ele>
        <time>2010-11-19T08:05:30Z</time>
      </trkpt>
      <trkpt lat="44.68965" lon="4.95026">
        <ele>325</ele>
        <time>2010-11-19T08:05:30Z</time>
      </trkpt>
      <trkpt lat="44.68958" lon="4.94849">
        <ele>319</ele>
        <time>2010-11-19T08:05:30Z</time>
      </trkpt>
      <trkpt lat="44.68993" lon="4.94784">
        <ele>313</ele>
        <time>2010-11-19T08:05:30Z</time>
      </trkpt>
      <trkpt lat="44.68986" lon="4.94715">
        <ele>306</ele>
        <time>2010-11-19T08:05:30Z</time>
      </trkpt>
      <trkpt lat="44.68955" lon="4.94694">
        <ele>299</ele>
        <time>2010-11-19T08:05:30Z</time>
      </trkpt>
      <trkpt lat="44.69011" lon="4.94517">
        <ele>286</ele>
        <time>2010-11-19T08:05:30Z</time>
      </trkpt>
      <trkpt lat="44.68969" lon="4.94556">
        <ele>282</ele>
        <time>2010-11-19T08:05:30Z</time>
      </trkpt>
      <trkpt lat="44.68933" lon="4.94469">
        <ele>271</ele>
        <time>2010-11-19T08:05:30Z</time>
      </trkpt>
      <trkpt lat="44.68871" lon="4.94441">
        <ele>265</ele>
        <time>2010-11-19T08:05:30Z</time>
      </trkpt>
      <trkpt lat="44.68947" lon="4.94262">
        <ele>256</ele>
        <time>2010-11-19T08:05:30Z</time>
      </trkpt>
      <trkpt lat="44.69043" lon="4.9421">
        <ele>253</ele>
        <time>2010-11-19T08:05:30Z</time>
      </trkpt>
      <trkpt lat="44.69257" lon="4.93895">
        <ele>233</ele>
        <time>2010-11-19T08:05:30Z</time>
      </trkpt>
      <trkpt lat="44.69259" lon="4.93901">
        <ele>235</ele>
        <time>2010-11-19T08:05:30Z</time>
      </trkpt>
      <trkpt lat="44.69262" lon="4.93889">
        <ele>233</ele>
        <time>2010-11-19T08:05:30Z</time>
      </trkpt>
      <trkpt lat="44.69415" lon="4.93877">
        <ele>251</ele>
        <time>2010-11-19T08:05:30Z</time>
      </trkpt>
      <trkpt lat="44.69233" lon="4.94054">
        <ele>260</ele>
        <time>2010-11-19T08:05:30Z</time>
      </trkpt>
      <trkpt lat="44.69513" lon="4.93935">
        <ele>274</ele>
        <time>2010-11-19T08:05:30Z</time>
      </trkpt>
      <trkpt lat="44.69691" lon="4.94">
        <ele>298</ele>
        <time>2010-11-19T08:05:30Z</time>
      </trkpt>
      <trkpt lat="44.69915" lon="4.93966">
        <ele>306</ele>
        <time>2010-11-19T08:05:30Z</time>
      </trkpt>
      <trkpt lat="44.69961" lon="4.93902">
        <ele>311</ele>
        <time>2010-11-19T08:05:30Z</time>
      </trkpt>
      <trkpt lat="44.70067" lon="4.93816">
        <ele>319</ele>
        <time>2010-11-19T08:05:30Z</time>
      </trkpt>
      <trkpt lat="44.70071" lon="4.93803">
        <ele>320</ele>
        <time>2010-11-19T08:05:30Z</time>
      </trkpt>
      <trkpt lat="44.70536" lon="4.93452">
        <ele>316</ele>
        <time>2010-11-19T08:05:30Z</time>
      </trkpt>
      <trkpt lat="44.70822" lon="4.93273">
        <ele>294</ele>
        <time>2010-11-19T08:05:30Z</time>
      </trkpt>
      <trkpt lat="44.71093" lon="4.93317">
        <ele>292</ele>
        <time>2010-11-19T08:05:30Z</time>
      </trkpt>
      <trkpt lat="44.71182" lon="4.93176">
        <ele>283</ele>
        <time>2010-11-19T08:05:30Z</time>
      </trkpt>
      <trkpt lat="44.71182" lon="4.93167">
        <ele>282</ele>
        <time>2010-11-19T08:05:30Z</time>
      </trkpt>
      <trkpt lat="44.7118" lon="4.93167">
        <ele>282</ele>
        <time>2010-11-19T08:05:30Z</time>
      </trkpt>
      <trkpt lat="44.71184" lon="4.93183">
        <ele>284</ele>
        <time>2010-11-19T08:05:30Z</time>
      </trkpt>
      <trkpt lat="44.71088" lon="4.93223">
        <ele>276</ele>
        <time>2010-11-19T08:05:30Z</time>
      </trkpt>
      <trkpt lat="44.71002" lon="4.93184">
        <ele>270</ele>
        <time>2010-11-19T08:05:30Z</time>
      </trkpt>
      <trkpt lat="44.70934" lon="4.93007">
        <ele>254</ele>
        <time>2010-11-19T08:05:30Z</time>
      </trkpt>
      <trkpt lat="44.70859" lon="4.92941">
        <ele>232</ele>
        <time>2010-11-19T08:05:30Z</time>
      </trkpt>
      <trkpt lat="44.70744" lon="4.92847">
        <ele>201</ele>
        <time>2010-11-19T08:05:30Z</time>
      </trkpt>
      <trkpt lat="44.70753" lon="4.92838">
        <ele>200</ele>
        <time>2010-11-19T08:05:30Z</time>
      </trkpt>
      <trkpt lat="44.70749" lon="4.92822">
        <ele>195</ele>
        <time>2010-11-19T08:05:30Z</time>
      </trkpt>
      <trkpt lat="44.70981" lon="4.92732">
        <ele>186</ele>
        <time>2010-11-19T08:05:30Z</time>
      </trkpt>
      <trkpt lat="44.71184" lon="4.92681">
        <ele>195</ele>
        <time>2010-11-19T08:05:30Z</time>
      </trkpt>
      <trkpt lat="44.71128" lon="4.92571">
        <ele>184</ele>
        <time>2010-11-19T08:05:30Z</time>
      </trkpt>
      <trkpt lat="44.71395" lon="4.92517">
        <ele>178</ele>
        <time>2010-11-19T08:05:30Z</time>
      </trkpt>
      <trkpt lat="44.71354" lon="4.92358">
        <ele>188</ele>
        <time>2010-11-19T08:05:30Z</time>
      </trkpt>
      <trkpt lat="44.71343" lon="4.9236">
        <ele>190</ele>
        <time>2010-11-19T08:05:30Z</time>
      </trkpt>
      <trkpt lat="44.71363" lon="4.92361">
        <ele>188</ele>
        <time>2010-11-19T08:05:30Z</time>
      </trkpt>
      <trkpt lat="44.71804" lon="4.92278">
        <ele>176</ele>
        <time>2010-11-19T08:05:30Z</time>
      </trkpt>
      <trkpt lat="44.72629" lon="4.9189">
        <ele>170</ele>
        <time>2010-11-19T08:05:30Z</time>
      </trkpt>
      <trkpt lat="44.72636" lon="4.91899">
        <ele>169</ele>
        <time>2010-11-19T08:05:30Z</time>
      </trkpt>
      <trkpt lat="44.72842" lon="4.91947">
        <ele>160</ele>
        <time>2010-11-19T08:05:30Z</time>
      </trkpt>
      <trkpt lat="44.72999" lon="4.92036">
        <ele>153</ele>
        <time>2010-11-19T08:05:30Z</time>
      </trkpt>
      <trkpt lat="44.73031" lon="4.92047">
        <ele>152</ele>
        <time>2010-11-19T08:05:30Z</time>
      </trkpt>
      <trkpt lat="44.73036" lon="4.92095">
        <ele>155</ele>
        <time>2010-11-19T08:05:30Z</time>
      </trkpt>
      <trkpt lat="44.73142" lon="4.92087">
        <ele>165</ele>
        <time>2010-11-19T08:05:30Z</time>
      </trkpt>
      <trkpt lat="44.73122" lon="4.92269">
        <ele>172</ele>
        <time>2010-11-19T08:05:30Z</time>
      </trkpt>
      <trkpt lat="44.73204" lon="4.92424">
        <ele>178</ele>
        <time>2010-11-19T08:05:30Z</time>
      </trkpt>
      <trkpt lat="44.7347" lon="4.92484">
        <ele>163</ele>
        <time>2010-11-19T08:05:30Z</time>
      </trkpt>
      <trkpt lat="44.73475" lon="4.92468">
        <ele>163</ele>
        <time>2010-11-19T08:05:30Z</time>
      </trkpt>
      <trkpt lat="44.73775" lon="4.92451">
        <ele>151</ele>
        <time>2010-11-19T08:05:30Z</time>
      </trkpt>
      <trkpt lat="44.7383" lon="4.92399">
        <ele>149</ele>
        <time>2010-11-19T08:05:30Z</time>
      </trkpt>
      <trkpt lat="44.74034" lon="4.92415">
        <ele>144</ele>
        <time>2010-11-19T08:05:30Z</time>
      </trkpt>
      <trkpt lat="44.74103" lon="4.92463">
        <ele>144</ele>
        <time>2010-11-19T08:05:30Z</time>
      </trkpt>
      <trkpt lat="44.74265" lon="4.9247">
        <ele>144</ele>
        <time>2010-11-19T08:05:30Z</time>
      </trkpt>
      <trkpt lat="44.74534" lon="4.9259">
        <ele>144</ele>
        <time>2010-11-19T08:05:30Z</time>
      </trkpt>
      <trkpt lat="44.74728" lon="4.91889">
        <ele>139</ele>
        <time>2010-11-19T08:05:30Z</time>
      </trkpt>
      <trkpt lat="44.7489" lon="4.92003">
        <ele>139</ele>
        <time>2010-11-19T08:05:30Z</time>
      </trkpt>
    </trkseg>
  </trk>
</gpx>